Tracking 21679 objects as of 30-Oct-2020
HD Live streaming from Space Station
objects crossing your sky now

STTW-T1

Track STTW-T1 now!
10-day predictions
STTW-T1 is classified as:


NORAD ID: 14670
Int'l Code: 1984-008A
Perigee: 471.6 km
Apogee: 6,332.2 km
Inclination: 36.1 °
Period: 160.2 minutes
Semi major axis: 9772 km
RCS: 3.9341 m2 (large)
Launch date: January 29, 1984
Source: People's Republic of China (PRC)
Launch site: Xichang Space Center, China (XSC)
aabbcc
Your satellite tracking list
Your tracking list is empty




NASA's NSSDC Master Catalog

Two Line Element Set (TLE):
1 14670U 84008A   20304.01196955 +.00000109 +00000-0 +47641-4 0  9999
2 14670 036.1230 187.9333 2998376 206.4477 134.5993 08.98601995198730
Source of the keplerian elements: AFSPC